QPF
0.00 0.00 0.03 0.08 0.13 0.18 0.13 0.09 0.07 0.01 0.00 0.00 0.00 0.00 0.01 0.02 0.04 0.03 0.03 0.03 0.03 0.01 0.00 0.01 0.01 0.00 0.00 0.01 0.01 0.01 0.03 0.03 0.04 0.02 0.02 0.02 0.01 0.01 0.01 0.01 0.02 0.02 0.02 0.03 0.05 0.05 0.05 0.03 0.04
0.00 0.02 0.07 0.12 0.13 0.14 0.11 0.07 0.04 0.01 0.00 0.00 0.00 0.00 0.00 0.01 0.02 0.03 0.03 0.02 0.02 0.01 0.01 0.01 0.01 0.00 0.01 0.01 0.01 0.02 0.03 0.03 0.03 0.02 0.02 0.02 0.01 0.01 0.01 0.02 0.02 0.02 0.01 0.02 0.04 0.05 0.04 0.03 0.03
0.01 0.03 0.10 0.14 0.14 0.10 0.07 0.04 0.03 0.01 0.00 0.00 0.00 0.00 0.00 0.01 0.01 0.03 0.06 0.02 0.02 0.01 0.01 0.01 0.01 0.01 0.01 0.02 0.04 0.03 0.03 0.04 0.03 0.02 0.01 0.02 0.01 0.01 0.01 0.02 0.02 0.02 0.02 0.02 0.03 0.04 0.04 0.03 0.03
0.02 0.05 0.11 0.14 0.10 0.07 0.06 0.03 0.02 0.01 0.01 0.00 0.00 0.00 0.00 0.00 0.00 0.02 0.04 0.02 0.01 0.01 0.00 0.01 0.01 0.02 0.02 0.03 0.04 0.06 0.05 0.05 0.03 0.02 0.01 0.01 0.02 0.01 0.01 0.02 0.02 0.02 0.02 0.03 0.03 0.02 0.03 0.03 0.03
0.03 0.07 0.10 0.14 0.07 0.08 0.05 0.03 0.03 0.02 0.02 0.01 0.00 0.00 0.00 0.00 0.00 0.01 0.03 0.02 0.02 0.01 0.01 0.01 0.01 0.03 0.04 0.02 0.02 0.02 0.04 0.05 0.03 0.02 0.01 0.01 0.02 0.02 0.01 0.02 0.03 0.03 0.02 0.03 0.03 0.03 0.03 0.03 0.03
0.05 0.07 0.08 0.08 0.08 0.12 0.08 0.03 0.04 0.05 0.04 0.01 0.00 0.00 0.01 0.00 0.00 0.01 0.03 0.02 0.02 0.01 0.00 0.01 0.01 0.07 0.07 0.02 0.01 0.01 0.01 0.02 0.02 0.02 0.01 0.02 0.02 0.03 0.04 0.03 0.03 0.04 0.03 0.03 0.03 0.03 0.03 0.03 0.03
0.07 0.05 0.04 0.03 0.09 0.13 0.07 0.04 0.04 0.02 0.03 0.01 0.01 0.00 0.00 0.00 0.00 0.01 0.02 0.02 0.02 0.00 0.00 0.01 0.02 0.06 0.10 0.05 0.01 0.01 0.01 0.01 0.01 0.01 0.01 0.01 0.01 0.03 0.05 0.05 0.05 0.04 0.04 0.03 0.02 0.02 0.05 0.05 0.05
0.04 0.02 0.02 0.03 0.08 0.09 0.09 0.05 0.03 0.02 0.02 0.01 0.00 0.00 0.00 0.01 0.01 0.01 0.02 0.03 0.02 0.00 0.00 0.01 0.01 0.03 0.05 0.04 0.02 0.01 0.01 0.00 0.01 0.00 0.01 0.01 0.02 0.02 0.03 0.03 0.04 0.04 0.07 0.08 0.04 0.04 0.05 0.06 0.07
0.02 0.01 0.02 0.02 0.08 0.10 0.05 0.02 0.02 0.01 0.01 0.01 0.01 0.00 0.00 0.00 0.00 0.01 0.02 0.03 0.02 0.01 0.00 0.00 0.01 0.01 0.03 0.03 0.02 0.02 0.01 0.01 0.01 0.01 0.01 0.02 0.03 0.03 0.02 0.02 0.03 0.05 0.09 0.13 0.10 0.08 0.08 0.08 0.10
0.01 0.01 0.02 0.01 0.03 0.06 0.03 0.02 0.01 0.01 0.01 0.03 0.04 0.02 0.01 0.00 0.00 0.00 0.02 0.03 0.04 0.02 0.01 0.00 0.01 0.01 0.01 0.01 0.02 0.02 0.02 0.02 0.01 0.01 0.02 0.03 0.03 0.02 0.01 0.01 0.02 0.04 0.07 0.11 0.09 0.06 0.07 0.10 0.13
0.01 0.01 0.01 0.01 0.03 0.04 0.02 0.01 0.02 0.01 0.02 0.04 0.06 0.06 0.02 0.01 0.01 0.01 0.02 0.04 0.04 0.05 0.04 0.03 0.01 0.01 0.01 0.01 0.01 0.02 0.02 0.02 0.01 0.02 0.04 0.04 0.02 0.01 0.01 0.01 0.02 0.03 0.05 0.08 0.06 0.05 0.08 0.16 0.16
0.01 0.01 0.00 0.00 0.01 0.01 0.01 0.02 0.04 0.02 0.01 0.02 0.05 0.06 0.02 0.02 0.02 0.02 0.02 0.02 0.03 0.07 0.10 0.05 0.03 0.02 0.01 0.01 0.01 0.01 0.01 0.01 0.03 0.03 0.03 0.02 0.01 0.01 0.02 0.01 0.02 0.02 0.04 0.07 0.07 0.07 0.08 0.09 0.11
0.01 0.01 0.00 0.00 0.00 0.00 0.00 0.01 0.02 0.02 0.02 0.04 0.02 0.02 0.01 0.02 0.02 0.03 0.03 0.02 0.02 0.04 0.07 0.05 0.03 0.03 0.02 0.01 0.01 0.01 0.02 0.03 0.03 0.02 0.01 0.01 0.01 0.01 0.02 0.01 0.02 0.03 0.03 0.04 0.05 0.05 0.06 0.06 0.07
0.00 0.00 0.00 0.00 0.00 0.00 0.00 0.01 0.03 0.02 0.02 0.05 0.02 0.02 0.02 0.03 0.04 0.04 0.04 0.02 0.01 0.01 0.03 0.04 0.04 0.03 0.02 0.02 0.02 0.02 0.02 0.02 0.02 0.01 0.01 0.00 0.01 0.01 0.01 0.01 0.03 0.05 0.04 0.04 0.04 0.04 0.04 0.05 0.05
0.00 0.00 0.01 0.00 0.00 0.01 0.01 0.01 0.01 0.01 0.01 0.03 0.02 0.03 0.03 0.04 0.04 0.04 0.03 0.01 0.01 0.00 0.01 0.03 0.04 0.03 0.03 0.03 0.02 0.02 0.02 0.01 0.01 0.01 0.01 0.01 0.01 0.00 0.01 0.02 0.02 0.04 0.05 0.05 0.05 0.05 0.06 0.07 0.06
0.00 0.01 0.01 0.01 0.00 0.00 0.00 0.01 0.01 0.01 0.01 0.02 0.02 0.04 0.04 0.02 0.03 0.03 0.01 0.02 0.02 0.01 0.01 0.01 0.02 0.02 0.03 0.03 0.03 0.03 0.02 0.02 0.01 0.01 0.01 0.01 0.01 0.01 0.01 0.03 0.03 0.03 0.04 0.06 0.07 0.07 0.07 0.06 0.06
0.01 0.00 0.01 0.01 0.00 0.00 0.00 0.01 0.01 0.02 0.02 0.02 0.02 0.03 0.04 0.02 0.03 0.04 0.01 0.02 0.01 0.01 0.01 0.01 0.01 0.01 0.01 0.02 0.02 0.03 0.03 0.02 0.01 0.01 0.01 0.01 0.01 0.01 0.01 0.02 0.03 0.03 0.02 0.05 0.08 0.08 0.06 0.06 0.07
0.01 0.00 0.00 0.01 0.00 0.01 0.01 0.01 0.01 0.02 0.03 0.02 0.03 0.04 0.04 0.03 0.03 0.03 0.02 0.01 0.01 0.01 0.02 0.02 0.01 0.01 0.01 0.03 0.03 0.02 0.03 0.03 0.02 0.02 0.02 0.02 0.02 0.03 0.03 0.03 0.02 0.01 0.02 0.03 0.06 0.09 0.07 0.06 0.08
0.00 0.00 0.00 0.00 0.00 0.00 0.01 0.01 0.02 0.03 0.03 0.03 0.04 0.07 0.06 0.05 0.04 0.03 0.02 0.01 0.01 0.01 0.02 0.02 0.03 0.02 0.02 0.03 0.03 0.03 0.04 0.03 0.03 0.03 0.02 0.03 0.03 0.03 0.04 0.03 0.02 0.02 0.02 0.02 0.03 0.05 0.06 0.07 0.07
0.00 0.00 0.00 0.00 0.00 0.00 0.01 0.01 0.02 0.02 0.02 0.03 0.04 0.06 0.06 0.05 0.05 0.03 0.02 0.01 0.01 0.01 0.02 0.03 0.04 0.04 0.03 0.04 0.04 0.03 0.03 0.02 0.03 0.02 0.03 0.03 0.03 0.03 0.03 0.03 0.03 0.03 0.03 0.03 0.03 0.03 0.04 0.05 0.05
0.00 0.00 0.00 0.00 0.00 0.00 0.01 0.02 0.04 0.03 0.02 0.04 0.06 0.06 0.05 0.04 0.06 0.04 0.02 0.02 0.02 0.01 0.02 0.03 0.03 0.04 0.05 0.06 0.04 0.04 0.03 0.03 0.03 0.04 0.05 0.05 0.04 0.03 0.03 0.03 0.03 0.05 0.07 0.07 0.05 0.04 0.04 0.05 0.06
0.00 0.00 0.00 0.00 0.00 0.00 0.00 0.02 0.04 0.03 0.05 0.09 0.07 0.04 0.02 0.03 0.05 0.04 0.02 0.02 0.02 0.02 0.03 0.04 0.05 0.05 0.06 0.06 0.05 0.04 0.04 0.04 0.03 0.04 0.05 0.06 0.05 0.05 0.05 0.06 0.06 0.08 0.10 0.08 0.06 0.05 0.06 0.07 0.07
0.00 0.00 0.00 0.00 0.00 0.00 0.01 0.01 0.04 0.06 0.06 0.08 0.06 0.03 0.02 0.02 0.03 0.02 0.02 0.02 0.02 0.03 0.04 0.05 0.05 0.05 0.07 0.07 0.05 0.06 0.06 0.05 0.05 0.06 0.06 0.06 0.06 0.05 0.04 0.06 0.08 0.07 0.07 0.07 0.08 0.07 0.08 0.07 0.06
0.00 0.00 0.00 0.00 0.00 0.00 0.01 0.02 0.05 0.06 0.06 0.06 0.05 0.04 0.03 0.01 0.01 0.01 0.01 0.02 0.03 0.04 0.04 0.04 0.06 0.08 0.09 0.10 0.11 0.09 0.07 0.08 0.08 0.08 0.08 0.09 0.10 0.07 0.05 0.05 0.06 0.07 0.07 0.07 0.08 0.09 0.08 0.06 0.05
0.00 0.00 0.00 0.00 0.01 0.01 0.03 0.05 0.05 0.06 0.05 0.06 0.07 0.06 0.04 0.02 0.02 0.03 0.03 0.04 0.05 0.06 0.05 0.05 0.07 0.08 0.11 0.13 0.13 0.09 0.09 0.13 0.14 0.10 0.10 0.11 0.10 0.08 0.07 0.09 0.10 0.10 0.10 0.10 0.11 0.09 0.06 0.04 0.04
0.00 0.00 0.00 0.01 0.01 0.01 0.02 0.04 0.04 0.05 0.06 0.09 0.13 0.09 0.04 0.04 0.05 0.05 0.04 0.05 0.07 0.07 0.05 0.05 0.07 0.09 0.11 0.11 0.09 0.09 0.11 0.12 0.11 0.09 0.08 0.06 0.05 0.06 0.08 0.10 0.11 0.10 0.08 0.07 0.08 0.07 0.05 0.04 0.05
0.00 0.00 0.00 0.00 0.00 0.02 0.02 0.03 0.05 0.04 0.03 0.05 0.06 0.03 0.02 0.03 0.07 0.09 0.07 0.04 0.06 0.07 0.06 0.06 0.08 0.12 0.11 0.10 0.10 0.08 0.07 0.06 0.07 0.07 0.06 0.06 0.06 0.06 0.06 0.07 0.07 0.06 0.04 0.05 0.06 0.06 0.05 0.05 0.04
0.00 0.00 0.00 0.00 0.00 0.01 0.02 0.04 0.04 0.03 0.03 0.07 0.07 0.03 0.01 0.02 0.03 0.06 0.07 0.05 0.05 0.05 0.05 0.05 0.05 0.04 0.06 0.10 0.08 0.06 0.05 0.04 0.04 0.05 0.06 0.07 0.07 0.09 0.10 0.08 0.06 0.06 0.06 0.05 0.04 0.04 0.04 0.04 0.04
0.00 0.00 0.00 0.00 0.00 0.00 0.02 0.05 0.05 0.04 0.03 0.03 0.03 0.04 0.02 0.02 0.03 0.02 0.02 0.03 0.03 0.02 0.03 0.03 0.02 0.02 0.04 0.07 0.05 0.03 0.03 0.03 0.04 0.04 0.06 0.08 0.09 0.10 0.12 0.11 0.09 0.07 0.07 0.06 0.05 0.05 0.04 0.04 0.03
0.00 0.00 0.00 0.00 0.01 0.00 0.01 0.02 0.02 0.03 0.03 0.02 0.02 0.02 0.03 0.03 0.03 0.02 0.02 0.02 0.02 0.02 0.02 0.02 0.02 0.02 0.02 0.02 0.02 0.02 0.03 0.04 0.05 0.05 0.06 0.06 0.06 0.07 0.07 0.06 0.05 0.04 0.04 0.05 0.05 0.05 0.05 0.05 0.03
MSLP
1008.22 1009.11 1010.14 1011.16 1011.97 1012.45 1012.50 1012.13 1011.41 1010.51 1009.59 1008.82 1008.31 1008.10 1008.14 1008.32 1008.50 1008.50 1008.23 1007.63 1006.72 1005.59 1004.38 1003.24 1002.30 1001.67 1001.39 1001.45 1001.79 1002.35 1003.01 1003.71 1004.36 1004.93 1005.40 1005.77 1006.07 1006.31 1006.52 1006.72 1006.93 1007.15 1007.38 1007.62 1007.85 1008.05 1008.22 1008.35 1008.44
1008.74 1009.79 1010.89 1011.86 1012.53 1012.78 1012.57 1011.94 1011.00 1009.94 1008.94 1008.18 1007.75 1007.65 1007.83 1008.12 1008.37 1008.38 1008.03 1007.27 1006.13 1004.72 1003.19 1001.73 1000.52 999.69 999.30 999.37 999.84 1000.62 1001.58 1002.61 1003.59 1004.45 1005.14 1005.66 1006.03 1006.27 1006.45 1006.61 1006.79 1007.00 1007.24 1007.52 1007.80 1008.05 1008.26 1008.41 1008.51
1009.46 1010.62 1011.74 1012.62 1013.11 1013.14 1012.67 1011.81 1010.68 1009.50 1008.46 1007.72 1007.36 1007.36 1007.63 1007.99 1008.25 1008.21 1007.74 1006.79 1005.40 1003.70 1001.87 1000.11 998.65 997.64 997.17 997.26 997.86 998.85 1000.10 1001.45 1002.76 1003.90 1004.81 1005.49 1005.93 1006.20 1006.36 1006.48 1006.63 1006.84 1007.11 1007.43 1007.77 1008.08 1008.35 1008.54 1008.67
1010.27 1011.50 1012.58 1013.34 1013.66 1013.47 1012.79 1011.74 1010.49 1009.25 1008.20 1007.50 1007.21 1007.27 1007.59 1007.96 1008.18 1008.05 1007.44 1006.31 1004.70 1002.76 1000.69 998.70 997.05 995.90 995.37 995.48 996.18 997.35 998.84 1000.45 1002.02 1003.39 1004.50 1005.30 1005.81 1006.10 1006.26 1006.37 1006.51 1006.72 1007.03 1007.40 1007.80 1008.19 1008.52 1008.77 1008.95
1011.05 1012.28 1013.28 1013.91 1014.05 1013.69 1012.87 1011.72 1010.42 1009.18 1008.18 1007.54 1007.29 1007.40 1007.71 1008.05 1008.20 1007.97 1007.24 1005.97 1004.23 1002.15 999.94 997.83 996.07 994.85 994.27 994.39 995.14 996.42 998.04 999.81 1001.53 1003.06 1004.28 1005.16 1005.73 1006.04 1006.20 1006.31 1006.45 1006.69 1007.04 1007.47 1007.94 1008.41 1008.81 1009.12 1009.35
1011.64 1012.79 1013.67 1014.16 1014.16 1013.70 1012.82 1011.67 1010.42 1009.26 1008.35 1007.79 1007.60 1007.71 1008.00 1008.27 1008.34 1008.03 1007.23 1005.91 1004.14 1002.05 999.84 997.73 995.97 994.74 994.15 994.24 994.99 996.26 997.89 999.68 1001.44 1003.00 1004.25 1005.16 1005.74 1006.06 1006.22 1006.34 1006.50 1006.77 1007.16 1007.65 1008.19 1008.73 1009.20 1009.57 1009.85
1011.91 1012.92 1013.64 1013.98 1013.90 1013.40 1012.56 1011.51 1010.40 1009.41 1008.65 1008.20 1008.06 1008.17 1008.41 1008.61 1008.61 1008.25 1007.44 1006.18 1004.50 1002.54 1000.47 998.49 996.83 995.65 995.07 995.12 995.78 996.95 998.46 1000.14 1001.79 1003.27 1004.46 1005.32 1005.88 1006.18 1006.35 1006.48 1006.67 1006.97 1007.40 1007.94 1008.54 1009.13 1009.66 1010.09 1010.41
1011.79 1012.61 1013.16 1013.38 1013.24 1012.78 1012.06 1011.20 1010.33 1009.56 1009.00 1008.68 1008.60 1008.71 1008.89 1009.02 1008.96 1008.60 1007.86 1006.73 1005.26 1003.55 1001.74 1000.00 998.52 997.45 996.88 996.87 997.39 998.36 999.65 1001.10 1002.55 1003.84 1004.89 1005.65 1006.15 1006.43 1006.59 1006.74 1006.95 1007.28 1007.75 1008.32 1008.96 1009.59 1010.16 1010.63 1010.99
1011.32 1011.92 1012.29 1012.40 1012.26 1011.89 1011.37 1010.77 1010.18 1009.68 1009.34 1009.17 1009.16 1009.26 1009.39 1009.46 1009.36 1009.03 1008.40 1007.48 1006.28 1004.90 1003.42 1002.00 1000.76 999.83 999.30 999.21 999.56 1000.28 1001.28 1002.42 1003.58 1004.63 1005.48 1006.11 1006.53 1006.78 1006.94 1007.10 1007.34 1007.69 1008.18 1008.77 1009.42 1010.06 1010.66 1011.16 1011.55
1010.61 1010.99 1011.20 1011.23 1011.11 1010.88 1010.59 1010.27 1009.99 1009.78 1009.67 1009.64 1009.69 1009.78 1009.86 1009.87 1009.75 1009.46 1008.97 1008.27 1007.39 1006.35 1005.25 1004.16 1003.18 1002.42 1001.93 1001.77 1001.93 1002.38 1003.07 1003.88 1004.73 1005.51 1006.17 1006.66 1006.99 1007.22 1007.38 1007.57 1007.83 1008.20 1008.69 1009.27 1009.91 1010.56 1011.15 1011.66 1012.08
1009.86 1010.04 1010.10 1010.08 1010.01 1009.93 1009.86 1009.83 1009.85 1009.90 1009.99 1010.09 1010.19 1010.26 1010.28 1010.23 1010.10 1009.85 1009.49 1009.00 1008.40 1007.70 1006.94 1006.17 1005.45 1004.84 1004.41 1004.18 1004.18 1004.39 1004.78 1005.29 1005.85 1006.39 1006.86 1007.24 1007.52 1007.73 1007.91 1008.12 1008.41 1008.79 1009.27 1009.83 1010.45 1011.06 1011.64 1012.15 1012.58
1009.27 1009.28 1009.23 1009.17 1009.16 1009.21 1009.35 1009.57 1009.83 1010.10 1010.35 1010.55 1010.67 1010.71 1010.67 1010.56 1010.39 1010.17 1009.90 1009.58 1009.20 1008.78 1008.30 1007.80 1007.29 1006.83 1006.45 1006.19 1006.06 1006.09 1006.25 1006.52 1006.85 1007.20 1007.53 1007.83 1008.08 1008.30 1008.52 1008.77 1009.08 1009.47 1009.93 1010.47 1011.03 1011.61 1012.16 1012.65 1013.07
1008.99 1008.88 1008.75 1008.67 1008.70 1008.87 1009.17 1009.57 1010.01 1010.43 1010.79 1011.04 1011.16 1011.16 1011.05 1010.88 1010.67 1010.45 1010.22 1010.00 1009.78 1009.53 1009.26 1008.95 1008.61 1008.27 1007.95 1007.68 1007.49 1007.40 1007.41 1007.51 1007.70 1007.92 1008.18 1008.43 1008.69 1008.94 1009.21 1009.50 1009.84 1010.23 1010.68 1011.17 1011.69 1012.21 1012.72 1013.18 1013.59
1009.10 1008.92 1008.74 1008.66 1008.73 1008.97 1009.37 1009.88 1010.42 1010.93 1011.32 1011.58 1011.68 1011.63 1011.47 1011.24 1010.98 1010.73 1010.51 1010.33 1010.17 1010.02 1009.85 1009.66 1009.43 1009.17 1008.91 1008.67 1008.47 1008.34 1008.29 1008.32 1008.43 1008.60 1008.82 1009.08 1009.36 1009.65 1009.97 1010.31 1010.67 1011.07 1011.50 1011.95 1012.41 1012.88 1013.33 1013.76 1014.14
1009.56 1009.34 1009.14 1009.07 1009.17 1009.46 1009.91 1010.46 1011.03 1011.55 1011.94 1012.17 1012.23 1012.13 1011.93 1011.66 1011.36 1011.09 1010.85 1010.66 1010.50 1010.37 1010.23 1010.08 1009.91 1009.72 1009.52 1009.34 1009.18 1009.07 1009.02 1009.05 1009.14 1009.30 1009.52 1009.79 1010.10 1010.43 1010.79 1011.16 1011.55 1011.95 1012.35 1012.76 1013.18 1013.59 1013.99 1014.38 1014.73
1010.22 1010.00 1009.82 1009.77 1009.90 1010.21 1010.67 1011.21 1011.76 1012.23 1012.57 1012.76 1012.78 1012.66 1012.43 1012.15 1011.85 1011.56 1011.30 1011.08 1010.89 1010.73 1010.57 1010.42 1010.26 1010.12 1009.98 1009.86 1009.78 1009.73 1009.74 1009.80 1009.91 1010.09 1010.31 1010.59 1010.90 1011.26 1011.63 1012.02 1012.42 1012.81 1013.20 1013.57 1013.94 1014.31 1014.66 1015.01 1015.33
1010.90 1010.71 1010.58 1010.59 1010.76 1011.09 1011.54 1012.04 1012.51 1012.91 1013.17 1013.29 1013.28 1013.15 1012.94 1012.68 1012.41 1012.14 1011.89 1011.64 1011.41 1011.20 1011.00 1010.81 1010.66 1010.54 1010.45 1010.41 1010.42 1010.46 1010.54 1010.65 1010.79 1010.97 1011.19 1011.45 1011.75 1012.09 1012.46 1012.84 1013.23 1013.61 1013.97 1014.32 1014.65 1014.98 1015.30 1015.61 1015.90
1011.44 1011.32 1011.28 1011.37 1011.60 1011.96 1012.39 1012.83 1013.21 1013.50 1013.67 1013.72 1013.67 1013.55 1013.39 1013.20 1013.00 1012.79 1012.57 1012.33 1012.08 1011.82 1011.57 1011.35 1011.18 1011.08 1011.04 1011.08 1011.16 1011.29 1011.44 1011.60 1011.77 1011.94 1012.13 1012.35 1012.60 1012.89 1013.22 1013.57 1013.93 1014.29 1014.63 1014.96 1015.27 1015.56 1015.85 1016.13 1016.40
1011.73 1011.72 1011.80 1012.02 1012.35 1012.75 1013.16 1013.53 1013.82 1013.98 1014.04 1014.01 1013.92 1013.82 1013.72 1013.62 1013.53 1013.42 1013.27 1013.08 1012.84 1012.56 1012.27 1012.02 1011.84 1011.74 1011.75 1011.84 1012.00 1012.21 1012.41 1012.61 1012.78 1012.93 1013.07 1013.21 1013.39 1013.61 1013.88 1014.18 1014.50 1014.83 1015.16 1015.46 1015.75 1016.02 1016.28 1016.53 1016.78
1011.77 1011.90 1012.16 1012.54 1012.99 1013.45 1013.86 1014.16 1014.33 1014.35 1014.28 1014.15 1014.02 1013.92 1013.88 1013.89 1013.93 1013.94 1013.90 1013.78 1013.58 1013.31 1013.02 1012.75 1012.55 1012.47 1012.50 1012.64 1012.85 1013.11 1013.36 1013.58 1013.74 1013.85 1013.93 1014.00 1014.09 1014.23 1014.41 1014.66 1014.94 1015.24 1015.54 1015.82 1016.09 1016.34 1016.58 1016.81 1017.03
1011.64 1011.96 1012.43 1012.99 1013.59 1014.13 1014.54 1014.76 1014.80 1014.66 1014.43 1014.17 1013.97 1013.86 1013.87 1013.98 1014.14 1014.29 1014.37 1014.35 1014.21 1013.98 1013.69 1013.42 1013.22 1013.14 1013.18 1013.35 1013.61 1013.90 1014.19 1014.41 1014.57 1014.64 1014.66 1014.66 1014.67 1014.72 1014.84 1015.03 1015.26 1015.53 1015.81 1016.08 1016.32 1016.55 1016.75 1016.95 1017.15
1011.49 1012.03 1012.73 1013.50 1014.25 1014.86 1015.26 1015.40 1015.29 1014.98 1014.56 1014.15 1013.84 1013.69 1013.71 1013.89 1014.16 1014.43 1014.63 1014.72 1014.66 1014.47 1014.22 1013.95 1013.75 1013.67 1013.72 1013.90 1014.18 1014.50 1014.81 1015.05 1015.19 1015.25 1015.23 1015.18 1015.13 1015.13 1015.19 1015.33 1015.53 1015.76 1016.02 1016.26 1016.48 1016.67 1016.84 1017.00 1017.16
1011.48 1012.24 1013.17 1014.14 1015.03 1015.70 1016.08 1016.12 1015.85 1015.34 1014.73 1014.15 1013.71 1013.48 1013.48 1013.69 1014.03 1014.40 1014.71 1014.89 1014.91 1014.78 1014.56 1014.31 1014.11 1014.02 1014.07 1014.26 1014.55 1014.89 1015.21 1015.47 1015.63 1015.68 1015.65 1015.58 1015.51 1015.47 1015.50 1015.60 1015.77 1015.98 1016.21 1016.42 1016.61 1016.76 1016.89 1016.99 1017.10
1011.70 1012.68 1013.81 1014.94 1015.93 1016.64 1016.97 1016.90 1016.47 1015.78 1014.98 1014.22 1013.63 1013.31 1013.26 1013.47 1013.84 1014.28 1014.66 1014.92 1015.01 1014.94 1014.75 1014.52 1014.33 1014.24 1014.28 1014.47 1014.76 1015.10 1015.44 1015.72 1015.90 1015.98 1015.96 1015.90 1015.83 1015.78 1015.80 1015.89 1016.03 1016.22 1016.42 1016.60 1016.75 1016.85 1016.92 1016.98 1017.03
1012.16 1013.32 1014.60 1015.84 1016.89 1017.59 1017.86 1017.68 1017.10 1016.24 1015.28 1014.36 1013.65 1013.23 1013.12 1013.30 1013.68 1014.14 1014.57 1014.89 1015.03 1015.01 1014.86 1014.66 1014.47 1014.38 1014.42 1014.59 1014.87 1015.22 1015.57 1015.87 1016.08 1016.19 1016.21 1016.17 1016.12 1016.09 1016.11 1016.19 1016.33 1016.49 1016.66 1016.81 1016.91 1016.97 1016.99 1016.99 1016.98
1012.81 1014.07 1015.43 1016.71 1017.75 1018.41 1018.60 1018.32 1017.63 1016.66 1015.58 1014.57 1013.76 1013.26 1013.10 1013.24 1013.60 1014.06 1014.51 1014.86 1015.04 1015.06 1014.95 1014.77 1014.61 1014.52 1014.55 1014.71 1014.99 1015.32 1015.68 1015.99 1016.22 1016.36 1016.42 1016.42 1016.40 1016.40 1016.43 1016.51 1016.64 1016.79 1016.93 1017.04 1017.11 1017.13 1017.10 1017.04 1016.99
1013.51 1014.80 1016.14 1017.38 1018.35 1018.93 1019.05 1018.70 1017.95 1016.92 1015.81 1014.76 1013.92 1013.39 1013.19 1013.30 1013.63 1014.07 1014.52 1014.87 1015.08 1015.13 1015.06 1014.92 1014.78 1014.71 1014.75 1014.90 1015.15 1015.47 1015.81 1016.12 1016.36 1016.53 1016.62 1016.65 1016.67 1016.69 1016.74 1016.82 1016.94 1017.07 1017.19 1017.28 1017.32 1017.30 1017.24 1017.15 1017.06
1014.14 1015.36 1016.60 1017.72 1018.57 1019.04 1019.08 1018.69 1017.94 1016.95 1015.88 1014.88 1014.08 1013.56 1013.36 1013.45 1013.74 1014.15 1014.57 1014.92 1015.14 1015.22 1015.20 1015.10 1015.01 1014.96 1015.00 1015.15 1015.38 1015.68 1015.99 1016.28 1016.52 1016.69 1016.79 1016.85 1016.89 1016.93 1016.99 1017.08 1017.20 1017.32 1017.42 1017.49 1017.52 1017.48 1017.41 1017.30 1017.20
1014.58 1015.65 1016.70 1017.63 1018.31 1018.66 1018.64 1018.25 1017.56 1016.67 1015.72 1014.85 1014.16 1013.71 1013.54 1013.62 1013.88 1014.25 1014.63 1014.95 1015.18 1015.29 1015.30 1015.26 1015.22 1015.21 1015.28 1015.43 1015.64 1015.91 1016.19 1016.44 1016.66 1016.81 1016.92 1016.99 1017.04 1017.10 1017.17 1017.27 1017.38 1017.49 1017.59 1017.66 1017.68 1017.65 1017.57 1017.47 1017.37
1014.82 1015.66 1016.47 1017.15 1017.64 1017.85 1017.78 1017.42 1016.84 1016.11 1015.35 1014.66 1014.12 1013.78 1013.66 1013.74 1013.97 1014.29 1014.62 1014.91 1015.12 1015.25 1015.32 1015.34 1015.36 1015.41 1015.51 1015.66 1015.87 1016.10 1016.34 1016.56 1016.74 1016.88 1016.98 1017.05 1017.11 1017.18 1017.26 1017.37 1017.49 1017.60 1017.70 1017.77 1017.79 1017.77 1017.71 1017.63 1017.54
Thickness
5839 5837 5834 5822 5800 5778 5773 5790 5807 5812 5816 5824 5828 5821 5808 5799 5788 5777 5798 5804 5800 5796 5793 5791 5789 5788 5786 5785 5783 5782 5780 5778 5777 5776 5775 5774 5773 5772 5771 5771 5770 5769 5768 5767 5766 5765 5764 5763 5763
5840 5837 5826 5810 5782 5760 5772 5797 5806 5816 5825 5831 5829 5822 5811 5802 5806 5801 5801 5802 5801 5798 5794 5792 5790 5788 5786 5785 5783 5781 5779 5778 5777 5775 5774 5773 5772 5772 5771 5770 5769 5768 5767 5766 5765 5764 5763 5762 5761
5840 5837 5814 5794 5774 5765 5777 5802 5812 5824 5834 5833 5823 5822 5813 5805 5807 5805 5806 5805 5801 5798 5795 5793 5791 5788 5786 5784 5782 5781 5779 5777 5776 5775 5773 5772 5771 5771 5770 5769 5768 5767 5766 5765 5764 5764 5762 5761 5760
5836 5822 5808 5787 5775 5786 5797 5807 5818 5821 5827 5831 5824 5812 5815 5821 5817 5813 5810 5806 5801 5798 5796 5793 5791 5789 5787 5785 5782 5780 5778 5776 5775 5774 5772 5771 5770 5770 5769 5768 5767 5766 5765 5764 5763 5762 5761 5760 5759
5831 5809 5788 5776 5782 5798 5811 5820 5823 5820 5820 5823 5821 5805 5805 5820 5823 5816 5810 5806 5802 5798 5796 5794 5791 5789 5788 5786 5783 5780 5777 5776 5774 5773 5772 5770 5769 5769 5768 5768 5767 5766 5764 5763 5762 5762 5761 5760 5758
5814 5800 5775 5766 5784 5804 5817 5826 5825 5820 5817 5820 5816 5804 5802 5818 5818 5814 5811 5807 5804 5800 5797 5794 5791 5789 5787 5785 5782 5779 5777 5775 5773 5772 5771 5770 5769 5768 5767 5767 5766 5765 5764 5763 5762 5761 5760 5759 5758
5806 5792 5778 5780 5786 5798 5816 5827 5821 5817 5816 5820 5821 5802 5802 5811 5817 5816 5812 5807 5804 5801 5797 5794 5791 5788 5785 5783 5781 5778 5776 5774 5772 5771 5769 5768 5767 5767 5766 5766 5765 5764 5763 5762 5761 5760 5759 5758 5757
5818 5796 5784 5784 5788 5797 5820 5827 5827 5823 5820 5831 5827 5804 5798 5811 5818 5815 5809 5805 5802 5799 5796 5793 5790 5787 5784 5782 5780 5777 5775 5773 5771 5769 5768 5767 5766 5766 5765 5764 5764 5763 5762 5761 5760 5759 5758 5757 5756
5824 5788 5777 5789 5795 5805 5822 5823 5827 5834 5828 5827 5827 5821 5819 5820 5817 5809 5802 5797 5796 5795 5793 5792 5789 5786 5784 5782 5779 5776 5774 5772 5770 5768 5767 5766 5765 5764 5763 5763 5762 5762 5761 5760 5759 5757 5756 5756 5755
5810 5783 5793 5812 5816 5815 5822 5823 5825 5821 5814 5814 5815 5819 5821 5817 5811 5804 5798 5793 5792 5791 5790 5790 5788 5786 5783 5781 5778 5775 5773 5771 5769 5767 5766 5764 5763 5762 5761 5761 5760 5759 5758 5757 5757 5756 5755 5754 5753
5811 5799 5812 5824 5828 5825 5823 5824 5828 5816 5804 5811 5811 5812 5815 5811 5807 5802 5799 5797 5795 5794 5792 5790 5788 5785 5783 5781 5777 5774 5772 5770 5768 5766 5765 5763 5761 5760 5759 5758 5757 5757 5756 5755 5755 5754 5753 5752 5751
5812 5816 5823 5827 5834 5829 5824 5823 5820 5818 5816 5825 5825 5821 5815 5809 5805 5803 5799 5797 5796 5793 5791 5790 5789 5786 5783 5780 5777 5774 5772 5769 5767 5765 5763 5761 5759 5758 5757 5756 5755 5755 5754 5753 5752 5751 5750 5750 5749
5810 5816 5827 5832 5831 5831 5829 5822 5819 5817 5826 5826 5823 5818 5813 5809 5806 5805 5803 5800 5797 5793 5791 5789 5788 5785 5782 5780 5777 5773 5771 5768 5766 5764 5761 5760 5758 5756 5755 5754 5753 5752 5752 5751 5750 5749 5748 5747 5746
5815 5819 5823 5828 5827 5829 5821 5818 5815 5815 5825 5820 5816 5811 5810 5807 5804 5802 5799 5797 5795 5794 5791 5789 5787 5785 5781 5778 5775 5772 5769 5767 5764 5762 5760 5759 5757 5755 5753 5752 5751 5750 5750 5749 5748 5747 5746 5745 5744
5818 5810 5812 5821 5823 5824 5819 5802 5808 5818 5819 5813 5811 5809 5807 5805 5803 5800 5800 5797 5795 5794 5792 5788 5785 5782 5779 5777 5774 5771 5768 5765 5762 5760 5758 5756 5755 5753 5752 5750 5749 5748 5747 5747 5745 5744 5743 5741 5741
5804 5794 5786 5808 5819 5821 5807 5783 5805 5818 5812 5805 5805 5805 5802 5801 5802 5801 5800 5797 5795 5792 5789 5787 5785 5780 5777 5774 5771 5768 5765 5763 5760 5758 5756 5754 5752 5751 5749 5747 5746 5745 5744 5743 5741 5739 5737 5736 5735
5779 5771 5778 5794 5815 5815 5802 5787 5803 5812 5808 5800 5800 5799 5798 5796 5797 5798 5798 5796 5793 5791 5787 5783 5781 5777 5774 5771 5768 5766 5763 5760 5757 5755 5753 5751 5750 5748 5746 5744 5743 5742 5741 5739 5738 5735 5733 5731 5731
5761 5769 5777 5784 5805 5805 5792 5789 5798 5805 5803 5797 5797 5796 5795 5792 5792 5795 5795 5794 5791 5788 5784 5780 5777 5774 5771 5767 5764 5761 5758 5756 5754 5752 5749 5748 5746 5745 5743 5741 5740 5738 5736 5735 5733 5731 5730 5729 5728
5775 5772 5771 5786 5805 5796 5786 5786 5791 5797 5796 5793 5791 5791 5790 5788 5791 5792 5791 5789 5786 5782 5779 5775 5772 5769 5767 5762 5758 5754 5751 5750 5749 5748 5746 5745 5743 5741 5739 5737 5736 5734 5732 5730 5729 5727 5725 5724 5723
5773 5766 5769 5783 5799 5792 5781 5780 5788 5793 5792 5792 5791 5789 5787 5783 5783 5785 5784 5782 5780 5777 5775 5771 5769 5766 5764 5760 5757 5753 5750 5747 5746 5744 5742 5741 5740 5738 5736 5733 5732 5730 5728 5726 5725 5723 5720 5719 5718
5769 5766 5769 5774 5787 5788 5777 5764 5772 5782 5789 5789 5788 5788 5788 5785 5781 5780 5779 5777 5775 5772 5770 5768 5765 5762 5760 5758 5754 5749 5745 5742 5739 5737 5737 5736 5735 5734 5732 5730 5728 5726 5724 5720 5720 5719 5717 5713 5713
5761 5783 5782 5778 5764 5754 5764 5733 5753 5765 5771 5775 5778 5780 5781 5781 5779 5777 5775 5771 5769 5768 5767 5764 5761 5758 5756 5753 5748 5743 5738 5734 5733 5733 5732 5731 5731 5729 5728 5726 5724 5722 5720 5717 5716 5715 5714 5712 5708
5775 5789 5784 5778 5763 5749 5751 5734 5738 5758 5756 5762 5770 5774 5775 5776 5775 5772 5770 5768 5766 5765 5762 5758 5755 5751 5749 5747 5744 5739 5734 5732 5730 5729 5727 5726 5725 5724 5723 5721 5719 5717 5716 5715 5712 5711 5711 5709 5706
5788 5780 5772 5757 5742 5726 5742 5733 5729 5745 5755 5761 5766 5769 5769 5769 5768 5766 5765 5763 5760 5758 5755 5751 5746 5743 5741 5739 5736 5733 5729 5726 5724 5721 5720 5719 5718 5718 5718 5716 5714 5713 5711 5710 5708 5707 5706 5705 5703
5773 5745 5723 5720 5709 5716 5741 5732 5732 5754 5766 5767 5764 5764 5762 5760 5759 5757 5755 5753 5752 5749 5746 5742 5738 5735 5734 5733 5731 5728 5725 5722 5719 5717 5715 5713 5712 5712 5712 5711 5709 5708 5707 5705 5703 5702 5701 5700 5699
5763 5746 5716 5705 5704 5712 5731 5725 5737 5760 5767 5767 5765 5762 5758 5755 5753 5750 5749 5746 5744 5741 5738 5734 5731 5728 5727 5726 5724 5722 5719 5717 5715 5713 5711 5709 5707 5707 5707 5706 5704 5703 5702 5700 5699 5698 5697 5696 5695
5759 5747 5745 5722 5718 5708 5712 5725 5739 5753 5753 5754 5753 5752 5748 5748 5747 5745 5743 5740 5737 5733 5730 5728 5724 5722 5720 5719 5717 5715 5712 5710 5708 5706 5705 5703 5703 5703 5702 5700 5699 5698 5697 5695 5694 5692 5692 5691 5690
5770 5757 5731 5716 5702 5695 5705 5711 5714 5730 5736 5741 5742 5741 5742 5742 5740 5737 5734 5732 5730 5727 5725 5722 5719 5716 5714 5712 5710 5709 5706 5704 5701 5700 5698 5697 5696 5696 5695 5694 5693 5692 5691 5690 5688 5687 5686 5685 5685
5755 5748 5731 5713 5708 5693 5687 5699 5732 5732 5734 5733 5735 5735 5735 5734 5732 5729 5727 5725 5722 5720 5717 5713 5710 5708 5706 5704 5702 5700 5699 5697 5695 5693 5692 5690 5689 5689 5688 5687 5687 5686 5685 5684 5683 5681 5681 5680 5679
5757 5746 5730 5711 5706 5700 5691 5697 5736 5735 5734 5732 5730 5730 5729 5727 5725 5722 5719 5716 5714 5710 5708 5705 5703 5701 5699 5697 5695 5693 5691 5689 5687 5686 5685 5684 5683 5682 5682 5681 5680 5679 5679 5678 5677 5676 5676 5675 5673